Location: ?p Dangia
(12.0167°N, 108.4333°E)
Time: 10:32:04
(UTC+00:00)

Cosmos 1733 Rocket - Pass Details

Date: 07 June 2020
Orbit: 602 x 629 km, 82.5° (Epoch: 03 July)

Event Time Altitude Azimuth Distance (km) Brightness Sun altitude
Rises 11:25:21 0° 351° (N) 2,845 7.0 -4.4°
Reaches altitude 10° 11:27:34 10° 349° (N) 1,940 6.2 -4.9°
Maximum altitude 11:31:49 67° 267° (W) 651 3.5 -5.8°
Drops below altitude 10° 11:36:04 10° 184° (S) 1,940 5.4 -6.7°
Sets 11:38:17 0° 181° (S) 2,844 6.2 -7.2°
